Regional Weather Roundup
Issued by NWS

Home | Current Version | Previous Version | Graphics & Text | Print | Product List | Glossary On
Versions: 1 2 3 4 5 6 7 8 9 10 11 12 13 14 15 16 17 18 19 20 21 22 23 24 25 26 27 28 29 30 31 32 33 34 35 36 37 38 39 40 41 42 43 44 45 46 47 48 49 50
000
ASUS43 KDMX 240106
RWRIA

WEATHER ROUNDUP FOR IOWA
NATIONAL WEATHER SERVICE DES MOINES IA
700 PM CST THU NOV 23 2017

NOTE: "FAIR" INDICATES FEW OR NO CLOUDS BELOW 12,000 FEET WITH NO
SIGNIFICANT WEATHER AND/OR OBSTRUCTIONS TO VISIBILITY.

* - THESE STATIONS ARE NOT NWS STATIONS...THUS NOT UNDER NWS
QUALITY CONTROL.  THEY ALSO DO NOT REPORT WEATHER SUCH
AS PRECIPITATION OR FOG.

IAZ001>003-012>014-020>022-031>034-043>046-240200-
   NORTHWEST IOWA

CITY           SKY/WX    TMP DP  RH WIND       PRES   REMARKS
CARROLL *      PTCLDY    50  36  57 S9        29.82F
CHEROKEE *     MOCLDY    47  35  63 S9        29.77F
DENISON *      CLOUDY    52  36  54 S8        29.83F
LE MARS *      CLOUDY    50  37  62 S9        29.76F
ORANGE CITY *  CLOUDY    48  37  66 S7        29.75F
SHELDON *      CLOUDY    48  36  61 S10       29.73F
SIOUX CITY     CLOUDY    50  38  63 SE8       29.77F
SPENCER        CLEAR     43  32  65 S9        29.76F
STORM LAKE *   CLOUDY    46  34  61 S12       29.79F
$$

IAZ055>058-069>071-079>083-090>094-240200-
   SOUTHWEST IOWA

CITY           SKY/WX    TMP DP  RH WIND       PRES   REMARKS
ATLANTIC *     PTCLDY    45  36  70 S7        29.86S
AUDUBON *      CLOUDY    50  37  62 S5        29.85F
CLARINDA *       N/A     45  36  70 SW5         N/A
COUNCIL BLFS * CLOUDY    54  39  58 S12       29.84F
CRESTON *      CLOUDY    46  36  66 SW9       29.89F
HARLAN  *      PTCLDY    48  36  61 S7        29.87F
LAMONI         CLEAR     51  35  54 S9        29.89F
RED OAK *      CLOUDY    48  36  61 S5        29.87F
SHENANDOAH *   CLEAR     48  36  61 SE5       29.87F
$$

IAZ047>049-059>061-072>074-084-240200-
   CENTRAL IOWA

CITY           SKY/WX    TMP DP  RH WIND       PRES   REMARKS
AMES           CLEAR     43  33  68 S7        29.86F
ANKENY *       CLEAR     45  32  61 S6        29.89S
BOONE *        CLOUDY    43  32  65 S9        29.84F
CHARITON *     CLEAR     43  32  65 S8        29.89F HAZE
DES MOINES     MOCLDY    46  32  58 SE8       29.88F
GRINNELL*      CLEAR     40  29  66 S7        29.89F WCI  35
KNOXVILLE *    CLEAR     46  30  53 S6        29.88F HAZE
MARSHALLTOWN   CLEAR     40  30  67 S8        29.87S WCI  34
NEWTON *       CLEAR     39  28  65 S7        29.89S WCI  34
PELLA *        CLEAR     42  30  63 S5        29.90F
PERRY *          N/A     44  30  57 S8        29.85F
$$

IAZ004>006-015-016-023>025-035-036-240200-
   NORTH CENTRAL IOWA

CITY           SKY/WX    TMP DP  RH WIND       PRES   REMARKS
ALGONA *       CLOUDY    45  32  61 S15       29.79F
CLARION *      CLEAR     39  30  70 S12       29.82F WCI  32
ESTHERVILLE    CLEAR     40  31  70 S12       29.76F WCI  33
FORT DODGE *   CLOUDY    47  31  53 S7        29.83S
MASON CITY     CLEAR     35  27  72 S10       29.83F WCI  27
FOREST CITY *    N/A     34  30  86 S7        29.81F WCI  28
WEBSTER CITY * CLOUDY    41  30  65 S10       29.82F
IOWA FALLS *     N/A     38  30  72 S9        29.86F WCI  32
$$

IAZ007>011-017>019-026>030-037>042-050>054-066-240200-
   NORTHEAST IOWA

CITY           SKY/WX    TMP DP  RH WIND       PRES   REMARKS
CEDAR RAPIDS   CLEAR     34  27  75 S5        29.88F WCI  30
CHARLES CITY * CLEAR     37  27  65 S8        29.85S WCI  31
CLINTON *      CLEAR     38  26  62 S8        29.92S WCI  32
DECORAH *      CLEAR     39  27  60 S6        29.84F WCI  35
DUBUQUE        CLEAR     33  25  72 S6        29.88F WCI  28
MONTICELLO *   CLEAR     34  27  75 CALM      29.88F
OELWEIN *      CLEAR     34  27  75 S8        29.86F WCI  27
WATERLOO       CLEAR     34  25  69 S5        29.87F WCI  30
$$

IAZ064-065-067-068-078-240200-
   EAST CENTRAL IOWA

CITY           SKY/WX    TMP DP  RH WIND       PRES   REMARKS
DAVENPORT      CLEAR     37  25  61 S5        29.94S WCI  33
IOWA CITY      CLEAR     37  28  70 CALM      29.92F
MT. PLEASANT * CLEAR     40  28  63 S5        29.93F
MUSCATINE *    CLEAR     36  28  75 CALM      29.93S
QUAD CITIES    CLEAR     33  25  72 CALM      29.92S
$$

IAZ062-063-075>077-085>089-095>099-240200-
   SOUTHEAST IOWA

CITY           SKY/WX    TMP DP  RH WIND       PRES   REMARKS
BURLINGTON     CLEAR     38  30  73 CALM      29.93S
FAIRFIELD *    CLEAR     39  28  65 SE5       29.91F
FORT MADISON * CLEAR     45  30  57 CALM      29.94S
KEOKUK *       CLEAR     39  30  70 CALM      29.94R
OSKALOOSA *      N/A     38  29  69 S8        29.90F WCI  32
OTTUMWA        CLEAR     40  29  64 S5        29.90F
WASHINGTON *   CLEAR     39  28  65 S7        29.92F WCI  34
$$

ABBREVIATIONS USED IN REMARKS
   TC - TEMPERATURES IN CELSIUS
  WCI - WIND CHILL INDEX
   HX - HEAT INDEX
  VSB - VISIBILITY
$$




USA.gov is the U.S. government's official web portal to all federal, state and local government web resources and services.